| time (UTC) | temp C | wind direction | speed KPH | gust KPH | rain 1hr cm | rain 24hr cm | rain mn cm | humidity % | barometer mb |
| 20260831001530 | 25 | 253 | 0.0 | 0.0 | 0.00 | 0.00 | 0.00 | 78 | 1017.4 |
| 20260831000039 | 25 | 253 | 0.0 | 0.0 | 0.00 | 0.00 | 0.00 | 77 | 1017.4 |
| 20260830234535 | 26 | 253 | 0.0 | 0.0 | 0.00 | 0.00 | 0.00 | 76 | 1017.5 |
| 20260830233028 | 26 | 253 | 0.0 | 0.0 | 0.00 | 0.00 | 0.00 | 75 | 1017.5 |
| 20260830231539 | 26 | 253 | 0.0 | 0.0 | 0.00 | 0.00 | 0.00 | 75 | 1017.4 |
| 20260830230050 | 27 | 253 | 0.0 | 0.0 | 0.00 | 0.00 | 0.00 | 74 | 1017.2 |
| 20260830224551 | 27 | 253 | 0.0 | 0.0 | 0.00 | 0.00 | 0.00 | 73 | 1017.1 |
| 20260830223059 | 27 | 253 | 0.0 | 0.0 | 0.00 | 0.00 | 0.00 | 69 | 1017.0 |
| 20260830221509 | 28 | 253 | 0.0 | 0.0 | 0.00 | 0.00 | 0.00 | 67 | 1016.9 |
| 20260830220010 | 28 | 253 | 0.0 | 0.0 | 0.00 | 0.00 | 0.00 | 67 | 1016.7 |
| 20260830214514 | 28 | 357 | 0.0 | 0.0 | 0.00 | 0.00 | 0.00 | 67 | 1016.8 |
| 20260830213034 | 27 | 271 | 0.0 | 0.0 | 0.00 | 0.00 | 0.00 | 69 | 1016.9 |
| 20260830211547 | 27 | 333 | 0.0 | 0.0 | 0.00 | 0.00 | 0.00 | 71 | 1017.1 |
| 20260830210050 | 28 | 33 | 0.0 | 0.0 | 0.00 | 0.00 | 0.00 | 70 | 1017.1 |
| 20260830204524 | 27 | 140 | 0.0 | 0.0 | 0.00 | 0.00 | 0.00 | 71 | 1016.9 |
| 20260830203043 | 27 | 250 | 0.0 | 0.0 | 0.00 | 0.00 | 0.00 | 74 | 1016.9 |
| 20260830201537 | 26 | 227 | 0.0 | 3.2 | 0.00 | 0.00 | 0.00 | 73 | 1016.9 |
| 20260830200044 | 26 | 194 | 0.0 | 3.2 | 0.00 | 0.00 | 0.00 | 72 | 1016.9 |
| 20260830194550 | 26 | 202 | 3.2 | 8.0 | 0.00 | 0.00 | 0.00 | 75 | 1017.0 |
| 20260830193052 | 26 | 186 | 1.6 | 6.4 | 0.00 | 0.00 | 0.00 | 74 | 1017.7 |
| 20260830191551 | 26 | 174 | 6.4 | 11.3 | 0.00 | 0.00 | 0.00 | 73 | 1018.3 |
| 20260830190051 | 27 | 229 | 0.0 | 0.0 | 0.00 | 0.00 | 0.00 | 71 | 1019.1 |
| 20260830184540 | 27 | 228 | 0.0 | 0.0 | 0.00 | 0.00 | 0.00 | 69 | 1019.4 |
| 20260830183034 | 27 | 228 | 0.0 | 0.0 | 0.00 | 0.00 | 0.00 | 70 | 1019.6 |
| 20260830181533 | 28 | 228 | 0.0 | 0.0 | 0.00 | 0.00 | 0.00 | 73 | 1019.8 |
| 20260830180034 | 27 | 213 | 0.0 | 0.0 | 0.00 | 0.00 | 0.00 | 71 | 1020.0 |
| 20260830174538 | 27 | 345 | 0.0 | 4.8 | 0.00 | 0.00 | 0.00 | 74 | 1020.2 |
| 20260830173035 | 26 | 323 | 0.0 | 4.8 | 0.00 | 0.00 | 0.00 | 72 | 1020.4 |
| 20260830171538 | 27 | 338 | 1.6 | 4.8 | 0.00 | 0.00 | 0.00 | 72 | 1020.4 |
| 20260830170049 | 27 | 339 | 1.6 | 8.0 | 0.00 | 0.00 | 0.00 | 72 | 1020.4 |
| 20260830164555 | 27 | 348 | 3.2 | 6.4 | 0.00 | 0.00 | 0.00 | 72 | 1020.6 |
| 20260830163010 | 26 | 329 | 4.8 | 8.0 | 0.00 | 0.00 | 0.00 | 74 | 1020.7 |
| 20260830161517 | 26 | 346 | 4.8 | 6.4 | 0.00 | 0.00 | 0.00 | 76 | 1020.7 |
| 20260830160055 | 27 | 350 | 0.0 | 4.8 | 0.00 | 0.00 | 0.00 | 74 | 1020.5 |
| 20260830154504 | 27 | 306 | 0.0 | 0.0 | 0.00 | 0.00 | 0.00 | 77 | 1020.4 |
| 20260830153005 | 27 | 50 | 0.0 | 1.6 | 0.00 | 0.00 | 0.00 | 76 | 1019.9 |
| 20260830151517 | 27 | 281 | 1.6 | 6.4 | 0.00 | 0.00 | 0.00 | 74 | 1019.6 |
| 20260830150058 | 26 | 287 | 1.6 | 4.8 | 0.00 | 0.00 | 0.00 | 79 | 1019.4 |
| 20260830144618 | 25 | 266 | 0.0 | 0.0 | 0.00 | 0.00 | 0.00 | 79 | 1019.0 |
| 20260830144501 | 25 | 266 | 0.0 | 0.0 | 0.00 | 0.00 | 0.00 | 79 | 1019.0 |
| 20260830143003 | 25 | 287 | 0.0 | 0.0 | 0.00 | 0.00 | 0.00 | 80 | 1018.8 |
| 20260830141510 | 24 | 263 | 0.0 | 3.2 | 0.00 | 0.00 | 0.00 | 82 | 1018.9 |
| 20260830140018 | 24 | 285 | 0.0 | 1.6 | 0.00 | 0.00 | 0.00 | 80 | 1018.8 |
| 20260830134558 | 23 | 288 | 0.0 | 0.0 | 0.00 | 0.00 | 0.00 | 83 | 1018.6 |
| 20260830133039 | 22 | 281 | 0.0 | 0.0 | 0.00 | 0.00 | 0.00 | 85 | 1018.7 |
| 20260830131544 | 21 | 295 | 0.0 | 0.0 | 0.00 | 0.00 | 0.00 | 86 | 1018.9 |
| 20260830130105 | 21 | 176 | 0.0 | 0.0 | 0.00 | 0.00 | 0.00 | 87 | 1019.0 |
| 20260830124551 | 20 | 176 | 0.0 | 0.0 | 0.00 | 0.00 | 0.00 | 88 | 1019.1 |
| 20260830123039 | 20 | 176 | 0.0 | 0.0 | 0.00 | 0.00 | 0.00 | 88 | 1019.2 |
| 20260830121543 | 20 | 176 | 0.0 | 0.0 | 0.00 | 0.00 | 0.00 | 88 | 1019.3 |
| 20260830120054 | 19 | 176 | 0.0 | 0.0 | 0.00 | 0.00 | 0.00 | 89 | 1019.4 |
| 20260830114608 | 18 | 176 | 0.0 | 0.0 | 0.00 | 0.00 | 0.00 | 89 | 1019.4 |
| 20260830113051 | 18 | 176 | 0.0 | 0.0 | 0.00 | 0.00 | 0.00 | 88 | 1019.3 |
| 20260830111538 | 18 | 176 | 0.0 | 0.0 | 0.00 | 0.00 | 0.00 | 88 | 1019.4 |
| 20260830110037 | 18 | 176 | 0.0 | 0.0 | 0.00 | 0.00 | 0.00 | 88 | 1019.2 |
| 20260830104527 | 19 | 176 | 0.0 | 0.0 | 0.00 | 0.00 | 0.00 | 88 | 1019.0 |
| 20260830103033 | 19 | 176 | 0.0 | 0.0 | 0.00 | 0.00 | 0.00 | 88 | 1018.8 |
| 20260830101550 | 18 | 176 | 0.0 | 0.0 | 0.00 | 0.00 | 0.00 | 88 | 1018.8 |
| 20260830100049 | 18 | 176 | 0.0 | 0.0 | 0.00 | 0.00 | 0.00 | 88 | 1018.9 |
| 20260830094549 | 18 | 176 | 0.0 | 0.0 | 0.00 | 0.00 | 0.00 | 89 | 1018.6 |
| 20260830093051 | 18 | 183 | 0.0 | 0.0 | 0.00 | 0.00 | 0.00 | 89 | 1018.6 |
| 20260830091557 | 18 | 183 | 0.0 | 0.0 | 0.00 | 0.00 | 0.00 | 89 | 1018.7 |
| 20260830090006 | 18 | 183 | 0.0 | 0.0 | 0.00 | 0.00 | 0.00 | 89 | 1018.8 |
| 20260830084503 | 18 | 307 | 0.0 | 0.0 | 0.00 | 0.00 | 0.00 | 88 | 1018.8 |
| 20260830083006 | 18 | 307 | 0.0 | 0.0 | 0.00 | 0.00 | 0.00 | 89 | 1018.9 |
| 20260830081513 | 18 | 307 | 0.0 | 0.0 | 0.00 | 0.00 | 0.00 | 89 | 1018.8 |
| 20260830080017 | 18 | 307 | 0.0 | 0.0 | 0.00 | 0.00 | 0.00 | 89 | 1019.0 |
| 20260830074523 | 18 | 307 | 0.0 | 0.0 | 0.00 | 0.00 | 0.00 | 89 | 1019.0 |
| 20260830073022 | 18 | 307 | 0.0 | 0.0 | 0.00 | 0.00 | 0.00 | 89 | 1019.1 |
| 20260830071534 | 18 | 307 | 0.0 | 0.0 | 0.00 | 0.00 | 0.00 | 89 | 1019.1 |
| 20260830070045 | 18 | 307 | 0.0 | 0.0 | 0.00 | 0.00 | 0.00 | 89 | 1019.2 |
| 20260830064551 | 18 | 307 | 0.0 | 0.0 | 0.00 | 0.00 | 0.00 | 89 | 1019.3 |
| 20260830063046 | 18 | 307 | 0.0 | 0.0 | 0.00 | 0.00 | 0.00 | 88 | 1019.3 |
| 20260830061530 | 18 | 307 | 0.0 | 0.0 | 0.00 | 0.00 | 0.00 | 89 | 1019.5 |
| 20260830060037 | 18 | 307 | 0.0 | 0.0 | 0.00 | 0.00 | 0.00 | 89 | 1019.5 |
| 20260830054540 | 18 | 307 | 0.0 | 0.0 | 0.00 | 0.00 | 0.00 | 89 | 1019.5 |
| 20260830053042 | 18 | 307 | 0.0 | 0.0 | 0.00 | 0.00 | 0.00 | 89 | 1019.5 |
| 20260830051555 | 17 | 307 | 0.0 | 0.0 | 0.00 | 0.00 | 0.00 | 88 | 1019.5 |
| 20260830050059 | 18 | 307 | 0.0 | 0.0 | 0.00 | 0.00 | 0.00 | 88 | 1019.4 |
| 20260830044607 | 18 | 307 | 0.0 | 0.0 | 0.00 | 0.00 | 0.00 | 88 | 1019.6 |
| 20260830043048 | 19 | 275 | 0.0 | 0.0 | 0.00 | 0.00 | 0.00 | 87 | 1019.5 |
| 20260830041555 | 19 | 145 | 0.0 | 0.0 | 0.00 | 0.00 | 0.00 | 88 | 1019.3 |
| 20260830040107 | 19 | 145 | 0.0 | 0.0 | 0.00 | 0.00 | 0.00 | 88 | 1019.1 |
| 20260830034541 | 20 | 145 | 0.0 | 0.0 | 0.00 | 0.00 | 0.00 | 87 | 1019.2 |
| 20260830033041 | 20 | 145 | 0.0 | 0.0 | 0.00 | 0.00 | 0.00 | 87 | 1019.2 |
| 20260830031522 | 20 | 145 | 0.0 | 0.0 | 0.00 | 0.00 | 0.00 | 87 | 1019.2 |
| 20260830030026 | 20 | 145 | 0.0 | 0.0 | 0.00 | 0.00 | 0.00 | 86 | 1019.2 |
| 20260830024530 | 20 | 145 | 0.0 | 0.0 | 0.00 | 0.00 | 0.00 | 87 | 1019.4 |
| 20260830023036 | 21 | 145 | 1.6 | 4.8 | 0.00 | 0.00 | 0.00 | 86 | 1019.4 |
| 20260830021540 | 21 | 206 | 0.0 | 0.0 | 0.00 | 0.00 | 0.00 | 84 | 1019.4 |
| 20260830020105 | 22 | 206 | 0.0 | 0.0 | 0.00 | 0.00 | 0.00 | 83 | 1019.4 |
| 20260830014553 | 22 | 206 | 0.0 | 0.0 | 0.00 | 0.00 | 0.00 | 81 | 1019.2 |
| 20260830013059 | 22 | 206 | 0.0 | 0.0 | 0.00 | 0.00 | 0.00 | 82 | 1019.1 |
| 20260830011507 | 23 | 206 | 0.0 | 0.0 | 0.00 | 0.00 | 0.00 | 81 | 1018.9 |
| 20260830010017 | 23 | 206 | 0.0 | 0.0 | 0.00 | 0.00 | 0.00 | 79 | 1019.0 |
| 20260830004518 | 23 | 206 | 0.0 | 0.0 | 0.00 | 0.00 | 0.00 | 78 | 1019.0 |
| 20260830003022 | 23 | 206 | 0.0 | 0.0 | 0.00 | 0.00 | 0.00 | 79 | 1018.9 |